Homestead AFB, FL

8:06 PM EDT on September 18, 2019 (GMT -0400)
Dade County-Homestead Regional

Weather History for KHST - August, 2019

Change the Weather History Date:

Saturday, August 24, 2019

  Actual Average Record
Temperature  
Mean Temperature 82 °F -  
Max Temperature 87 °F 90 °F 95 °F (1931)
Min Temperature 77 °F 72 °F 67 °F (1943)
Cooling Degree Days 17    
Growing Degree Days 32 (Base 50)    
Moisture  
Dew Point 77 °F    
Average Humidity 90    
Maximum Humidity 95    
Minimum Humidity 75    
Precipitation  
Precipitation 0.82 in - - ()
Sea Level Pressure  
Sea Level Pressure 29.93 in    
Wind  
Wind Speed 5 mph (South)    
Max Wind Speed 20 mph    
Max Gust Speed 26 mph    
Visibility 9 miles    
Events Rain , Thunderstorm    
Averages and records for this station are not official NWS values.
T = Trace of Precipitation, MM = Missing Value Source: NWS Daily Summary

Daily Weather History Graph

Daily Weather History Graph

Search for Another Location

Airport or City:

Astronomy

Aug. 24, 2019 Rise Set
Actual Time 6:58 AM EDT 7:48 PM EDT
Civil Twilight 6:35 AM EDT 8:12 PM EDT
Nautical Twilight 6:07 AM EDT 8:40 PM EDT
Astronomical Twilight 5:38 AM EDT 9:08 PM EDT
Moon 1:02 AM EDT (8/24) 2:47 PM EDT (8/24)
Length of Visible Light 13h 37m
Length of Day
12h 50m
Last Quarter, 39% of the Moon is Illuminated
Aug 24
Last Quarter
Aug 30
New
Sep 5
First Quarter
Sep 14
Full
Sep 21
Last Quarter

Hourly Weather History & Observations

Time (EDT) Temp. Heat Index Dew Point Humidity Pressure Visibility Wind Dir Wind Speed Gust Speed Precip Events Conditions
12:56 AM 78.8 °F - 76.5 °F 92% 29.93 in 10.0 mi Calm Calm - N/A   Clear
1:56 AM 78.8 °F - 77.2 °F 95% 29.91 in 10.0 mi Calm Calm - N/A   Clear
2:41 AM 78.8 °F - 77.0 °F 94% 29.91 in 10.0 mi SW 3.5 mph - N/A   Mostly Cloudy
2:46 AM 78.8 °F - 77.0 °F 94% 29.91 in 10.0 mi South 3.5 mph - N/A   Mostly Cloudy
2:51 AM 78.8 °F - 77.0 °F 94% 29.91 in 10.0 mi Calm Calm - N/A   Mostly Cloudy
2:56 AM 79.2 °F - 77.5 °F 95% 29.91 in 10.0 mi Calm Calm - N/A   Mostly Cloudy
3:01 AM 78.8 °F - 77.0 °F 94% 29.91 in 10.0 mi Calm Calm - N/A   Mostly Cloudy
3:43 AM 78.8 °F - 77.0 °F 94% 29.90 in 10.0 mi South 8.1 mph - N/A Rain Light Rain
3:56 AM 78.3 °F - 75.9 °F 92% 29.90 in 10.0 mi SSE 6.9 mph - 0.00 in Rain Light Rain
3:57 AM 78.8 °F - 75.2 °F 89% 29.90 in 10.0 mi SE 5.8 mph - N/A   Overcast
4:02 AM 78.8 °F - 75.2 °F 89% 29.90 in 10.0 mi SE 4.6 mph - N/A   Overcast
4:47 AM 78.8 °F - 77.0 °F 94% 29.90 in 10.0 mi South 6.9 mph - N/A   Mostly Cloudy
4:51 AM 78.8 °F - 77.0 °F 94% 29.91 in 10.0 mi South 9.2 mph - N/A Rain , Thunderstorm Light Rain
4:56 AM 78.8 °F - 76.5 °F 92% 29.91 in 9.0 mi South 5.8 mph - 0.01 in Rain , Thunderstorm Rain
5:06 AM 78.8 °F - 77.0 °F 94% 29.91 in 10.0 mi South 5.8 mph - N/A Rain Light Rain
5:10 AM 78.8 °F - 77.0 °F 94% 29.91 in 10.0 mi SSE 3.5 mph - N/A   Mostly Cloudy
5:56 AM 77.5 °F - 75.4 °F 93% 29.92 in 10.0 mi Calm Calm - 0.00 in   Overcast
6:56 AM 77.9 °F - 75.9 °F 94% 29.92 in 10.0 mi Calm Calm - N/A   Overcast
7:56 AM 79.5 °F - 77.5 °F 94% 29.92 in 10.0 mi Calm Calm - N/A   Clear
8:56 AM 83.7 °F 96.1 °F 79.7 °F 88% 29.92 in 10.0 mi South 6.9 mph - N/A   Clear
9:26 AM 84.2 °F 96.1 °F 78.8 °F 84% 29.94 in 10.0 mi South 6.9 mph - N/A   Mostly Cloudy
9:49 AM 84.2 °F 96.1 °F 78.8 °F 84% 29.94 in 10.0 mi SSE 9.2 mph - N/A Rain Light Rain
9:56 AM 83.3 °F 94.9 °F 79.3 °F 88% 29.94 in 10.0 mi SSE 8.1 mph - 0.00 in Rain Light Rain
10:00 AM 82.4 °F 92.4 °F 78.8 °F 89% 29.94 in 10.0 mi SSE 5.8 mph - N/A   Mostly Cloudy
10:05 AM 82.4 °F 92.4 °F 78.8 °F 89% 29.94 in 10.0 mi South 3.5 mph - N/A   Mostly Cloudy
10:56 AM 87.1 °F 100.4 °F 78.4 °F 75% 29.95 in 10.0 mi SSW 9.2 mph - 0.00 in   Overcast
11:14 AM 87.8 °F 102.5 °F 78.8 °F 75% 29.95 in 10.0 mi SW 19.6 mph - N/A Rain , Thunderstorm Light Rain
11:21 AM 82.4 °F 90.9 °F 77.0 °F 84% 29.95 in 4.0 mi West 16.1 mph 26.5 mph N/A Rain Heavy Rain
11:26 AM 80.6 °F 87.1 °F 77.0 °F 89% 29.96 in 1.2 mi SW 10.4 mph - N/A Rain Heavy Rain
11:31 AM 80.6 °F 87.1 °F 77.0 °F 89% 29.96 in 2.5 mi SW 6.9 mph - N/A Rain Heavy Rain
11:36 AM 80.6 °F 87.1 °F 77.0 °F 89% 29.96 in 4.0 mi SSW 6.9 mph - N/A Rain Heavy Rain
11:38 AM 80.6 °F 87.1 °F 77.0 °F 89% 29.96 in 5.0 mi SSW 5.8 mph - N/A Rain , Thunderstorm Light Thunderstorms and Rain
11:53 AM 82.4 °F 92.4 °F 78.8 °F 89% 29.95 in 10.0 mi SW 4.6 mph - N/A Thunderstorm Thunderstorm
11:56 AM 82.8 °F 92.9 °F 78.4 °F 87% 29.95 in 10.0 mi SW 5.8 mph - 0.20 in Thunderstorm Thunderstorm
12:07 PM 84.2 °F 96.1 °F 78.8 °F 84% 29.95 in 10.0 mi SSW 4.6 mph - N/A Thunderstorm Overcast
12:32 PM 84.2 °F 96.1 °F 78.8 °F 84% 29.95 in 10.0 mi SW 3.5 mph - N/A Thunderstorm Thunderstorm
12:47 PM 82.4 °F 90.9 °F 77.0 °F 84% 29.96 in 10.0 mi SE 6.9 mph - N/A Thunderstorm Overcast
12:52 PM 80.6 °F 87.1 °F 77.0 °F 89% 29.97 in 9.0 mi South 8.1 mph - N/A Rain , Thunderstorm Light Rain
12:56 PM 79.9 °F - 77.0 °F 91% 29.97 in 6.0 mi SSW 4.6 mph - 0.13 in Rain , Thunderstorm Heavy Thunderstorms and Rain
1:01 PM 78.8 °F - 77.0 °F 94% 29.96 in 1.1 mi SW 12.7 mph - N/A Rain , Thunderstorm Heavy Thunderstorms and Rain
1:06 PM 78.8 °F - 75.2 °F 89% 29.95 in 0.9 mi SSE 10.4 mph - N/A Rain , Thunderstorm Heavy Thunderstorms and Rain
1:16 PM 78.8 °F - 75.2 °F 89% 29.96 in 2.0 mi ESE 8.1 mph - N/A Rain , Thunderstorm Thunderstorms and Rain
1:49 PM 78.8 °F - 77.0 °F 94% 29.97 in 7.0 mi SE 4.6 mph - N/A Rain , Thunderstorm Light Thunderstorms and Rain
1:56 PM 78.1 °F - 76.5 °F 95% 29.96 in 3.0 mi SE 3.5 mph - 0.42 in Rain , Thunderstorm Thunderstorms and Rain
2:14 PM 78.8 °F - 75.2 °F 89% 29.95 in 10.0 mi South 4.6 mph - N/A Thunderstorm Thunderstorm
2:16 PM 78.8 °F - 75.2 °F 89% 29.94 in 10.0 mi South 4.6 mph - N/A Thunderstorm Unknown
2:21 PM 78.8 °F - 77.0 °F 94% 29.93 in 10.0 mi SSW 4.6 mph - N/A Rain , Thunderstorm Light Rain
2:31 PM 78.8 °F - 77.0 °F 94% 29.92 in 7.0 mi SSW 5.8 mph - N/A Rain , Thunderstorm Thunderstorms and Rain
2:46 PM 78.8 °F - 77.0 °F 94% 29.92 in 9.0 mi East 5.8 mph - N/A Rain Light Rain
2:56 PM 78.3 °F - 76.6 °F 95% 29.92 in 10.0 mi ENE 9.2 mph - 0.05 in Rain Light Rain
2:59 PM 78.8 °F - 77.0 °F 94% 29.92 in 10.0 mi ENE 10.4 mph - N/A   Overcast
3:10 PM 78.8 °F - 77.0 °F 94% 29.92 in 10.0 mi ENE 4.6 mph - N/A Rain Light Rain
3:56 PM 82.6 °F 93.3 °F 79.3 °F 90% 29.91 in 10.0 mi ENE 5.8 mph - 0.00 in   Partly Cloudy
4:14 PM 84.2 °F 96.1 °F 78.8 °F 84% 29.90 in 10.0 mi East 6.9 mph - N/A Rain Light Rain
4:28 PM 82.4 °F 92.4 °F 78.8 °F 89% 29.90 in 10.0 mi East 5.8 mph - N/A   Mostly Cloudy
4:56 PM 85.6 °F 99.7 °F 79.7 °F 82% 29.90 in 10.0 mi ESE 9.2 mph - 0.01 in   Mostly Cloudy
5:56 PM 84.0 °F 96.0 °F 79.0 °F 85% 29.89 in 10.0 mi South 3.5 mph - N/A   Overcast
6:15 PM 82.4 °F 92.4 °F 78.8 °F 89% 29.90 in 10.0 mi South 4.6 mph - N/A   Light Drizzle
6:25 PM 84.2 °F 96.1 °F 78.8 °F 84% 29.90 in 10.0 mi SSW 4.6 mph - N/A   Overcast
6:56 PM 83.3 °F 93.8 °F 78.3 °F 85% 29.90 in 10.0 mi South 4.6 mph - 0.00 in   Mostly Cloudy
7:56 PM 81.3 °F 89.2 °F 77.7 °F 89% 29.91 in 10.0 mi South 4.6 mph - N/A   Clear
8:56 PM 80.8 °F 88.0 °F 77.9 °F 91% 29.94 in 10.0 mi South 4.6 mph - N/A   Mostly Cloudy
9:56 PM 80.1 °F 86.3 °F 77.7 °F 93% 29.95 in 10.0 mi South 3.5 mph - N/A   Partly Cloudy
11:56 PM 79.5 °F - 77.5 °F 94% 29.95 in 10.0 mi South 3.5 mph - N/A   Clear